Wind_Speed
14 19 21 26 34 36 33 36 43 34 30 31 32 33 32 34 36 30 28 21 16 12 12 14 14 17 22 27 27 29 39 38 37 35 36 31 25 26 23 20 14 14 11 13
7 11 11 13 19 24 32 38 43 44 45 43 38 37 36 37 38 35 23 26 19 22 24 22 17 19 15 17 17 18 21 22 28 32 30 29 27 26 28 25 18 17 13 15
5 8 11 11 10 12 23 29 33 34 44 46 43 41 42 41 37 37 35 30 30 27 23 20 14 15 13 12 10 13 11 13 15 21 24 31 30 31 32 31 26 20 15 15
8 8 10 13 14 12 14 19 23 25 30 31 31 32 33 38 37 37 36 39 33 24 24 19 15 13 11 12 10 11 14 15 13 14 19 25 33 40 40 38 30 22 20 16
13 13 13 13 12 15 16 18 20 21 23 24 25 28 29 29 33 34 34 34 32 25 22 23 20 18 21 21 21 18 18 15 15 13 14 16 22 27 36 39 32 25 22 22
15 17 17 17 17 17 17 17 18 22 24 25 25 25 25 25 30 34 31 34 31 29 29 30 28 28 25 26 28 27 24 20 17 14 15 17 17 22 23 24 25 24 26 25
15 15 15 15 16 18 18 18 19 20 21 23 25 27 27 25 29 27 25 26 27 28 30 37 38 34 30 30 30 25 24 24 20 17 14 13 12 21 23 24 23 25 28 26
14 16 15 16 16 15 15 15 16 18 21 22 24 24 24 28 30 28 27 25 22 22 24 26 27 29 27 29 27 25 25 23 21 20 17 14 11 17 23 28 28 28 31 29
13 14 14 16 16 16 15 15 15 17 19 21 25 26 26 27 31 30 30 27 25 24 22 23 21 16 27 37 35 29 32 28 25 22 19 14 13 13 19 24 29 31 36 32
14 14 15 17 16 16 14 14 15 19 21 24 26 28 30 31 30 31 31 27 24 25 24 24 21 20 22 25 36 38 39 39 32 31 21 19 16 15 15 19 20 22 29 33
15 14 17 16 16 16 17 16 17 20 23 24 25 27 30 32 32 33 31 28 27 29 26 26 24 23 20 20 27 37 43 41 38 34 30 25 26 24 21 19 21 23 23 25
16 14 16 18 18 18 18 19 22 23 23 24 25 27 27 29 31 31 27 23 20 22 22 24 30 25 23 18 21 32 40 41 40 36 34 29 25 30 26 22 20 24 28 30
17 16 16 17 19 18 18 20 22 19 22 21 19 19 20 21 21 18 18 17 19 19 24 30 30 27 25 22 17 19 29 38 41 37 34 31 27 28 25 23 23 26 28 30
19 19 16 16 18 19 18 20 20 22 21 20 16 15 15 15 13 9 8 9 12 14 15 21 23 25 23 21 21 22 25 31 29 33 35 31 28 26 28 25 25 25 25 29
18 21 19 17 17 18 18 19 22 21 16 16 12 9 8 3 6 7 5 5 2 4 7 9 16 15 20 23 21 22 25 25 22 28 35 35 29 29 29 31 31 27 29 28
20 19 20 17 17 18 16 17 21 19 14 15 8 2 2 3 2 5 6 3 2 4 7 13 7 6 14 20 22 20 19 31 27 27 36 39 34 32 32 34 36 36 37 35
24 22 20 21 18 20 17 18 18 18 13 15 10 7 5 4 5 7 11 7 1 5 7 7 13 6 10 15 17 20 21 24 33 31 35 39 40 38 38 40 39 39 39 38
28 25 22 22 19 21 18 18 18 16 15 15 12 9 9 8 11 10 9 11 12 10 10 9 13 16 15 10 13 17 17 22 26 34 37 40 41 45 46 47 46 46 51 48
30 27 25 25 22 21 21 16 19 18 19 17 14 9 12 13 14 13 12 12 15 16 15 17 17 20 23 17 15 19 21 21 21 26 31 38 40 44 48 53 57 58 56 57
32 28 27 29 25 23 23 18 19 20 21 19 16 14 14 16 16 16 15 16 19 18 18 17 20 23 26 26 25 20 20 25 29 34 35 37 43 46 50 54 57 61 63 67
29 27 28 29 28 27 26 22 20 22 20 22 21 20 20 18 19 20 23 24 23 20 21 25 28 27 28 26 25 23 22 19 25 33 35 39 43 47 58 63 65 66 67 67
31 25 28 30 29 30 28 27 25 21 23 23 23 24 25 22 20 21 22 24 28 28 30 30 29 29 29 28 26 22 21 23 22 23 29 37 42 49 55 63 67 66 67 70
31 25 26 31 33 31 31 31 28 26 24 25 27 24 26 30 25 22 24 24 27 31 33 33 31 29 27 24 22 20 22 25 26 29 33 36 40 43 47 54 60 65 72 71
34 29 25 31 35 36 34 33 31 31 30 30 30 29 30 28 31 30 28 28 29 30 35 34 32 29 29 25 28 27 28 29 32 37 38 39 43 45 48 55 65 71 77 76
35 32 30 30 33 35 35 35 33 34 34 34 35 35 31 33 32 34 34 33 30 35 33 33 33 33 35 36 35 34 36 37 39 40 43 46 48 48 51 50 50 48 65 78
40 37 34 31 31 33 35 37 38 38 37 36 36 34 34 34 33 34 37 36 31 34 37 36 34 36 39 41 41 43 43 45 43 44 46 50 52 51 53 56 58 60 54 57
Wind_Direction
229 234 234 234 233 233 240 235 237 248 246 253 253 259 268 277 277 276 292 277 249 250 276 267 278 259 232 231 236 249 252 258 264 263 260 261 257 239 235 248 239 221 246 235
227 244 250 245 237 243 251 251 251 250 251 262 263 270 272 273 281 277 265 263 249 271 274 277 260 247 238 230 238 240 245 255 257 259 259 246 242 231 236 244 237 225 240 233
248 264 279 279 265 241 240 249 256 258 256 261 263 255 260 268 277 277 277 270 275 276 267 272 243 239 243 229 226 238 258 279 268 260 249 248 242 240 237 239 244 228 229 229
268 266 264 270 272 262 256 261 258 253 252 253 253 256 260 264 263 266 268 273 272 279 270 219 223 225 234 242 247 284 278 280 280 268 261 253 243 236 239 241 236 224 231 217
282 278 272 273 280 279 269 262 261 260 260 256 253 253 249 247 254 254 248 258 262 263 252 217 234 250 246 249 257 272 277 280 276 272 269 266 251 243 243 242 228 222 223 218
278 271 270 274 277 274 267 261 257 262 264 263 264 260 259 258 252 251 252 249 252 253 255 228 255 267 257 259 259 265 269 268 267 272 273 278 257 233 226 221 220 215 215 216
289 289 293 292 284 271 264 262 258 255 259 263 263 264 266 265 264 267 263 257 255 257 251 243 259 262 260 262 257 258 262 266 262 273 268 272 246 225 217 218 223 224 211 222
284 288 290 287 282 272 268 264 260 267 268 265 265 268 270 272 274 272 271 269 269 269 272 272 266 262 252 237 237 247 257 257 259 269 256 249 241 215 218 218 218 225 222 228
296 302 299 290 286 285 280 272 265 264 268 274 275 272 268 265 270 272 272 273 270 271 269 273 269 253 243 227 229 236 242 241 253 249 260 266 260 243 222 225 227 225 223 230
300 306 298 292 288 283 283 285 284 282 281 275 274 272 271 270 267 268 269 274 275 269 264 259 259 254 243 232 223 229 233 237 243 242 249 266 268 258 248 237 232 237 236 230
300 299 294 295 301 305 306 304 295 292 288 283 279 276 275 271 268 267 266 263 263 265 264 263 258 251 244 245 219 217 225 228 232 236 242 245 251 242 236 230 226 236 252 252
296 296 299 306 307 304 305 308 304 296 287 282 280 274 269 269 275 283 288 286 278 269 268 267 259 260 254 241 235 231 229 224 227 231 234 243 244 246 237 238 235 229 231 238
293 295 294 297 300 300 301 303 299 289 285 284 283 286 288 289 292 291 282 274 267 257 245 250 258 262 261 258 238 235 227 223 227 229 229 240 258 261 244 235 229 228 233 236
290 286 287 286 292 298 300 303 292 290 287 282 293 298 287 283 296 313 304 290 280 273 265 256 255 256 258 261 260 253 233 232 232 229 229 235 248 245 245 234 230 233 233 231
281 285 287 290 289 290 297 293 290 297 290 292 303 310 303 351 73 71 30 13 348 248 249 256 257 256 257 253 256 249 241 228 231 231 230 235 241 240 246 244 239 243 253 246
265 269 275 275 285 287 290 281 293 298 280 279 281 280 108 101 56 3 355 16 154 195 194 240 273 280 273 282 271 268 252 236 236 236 234 234 237 242 241 244 250 249 250 249
265 264 268 273 278 282 287 277 291 287 262 263 265 265 248 257 282 311 315 320 204 184 237 262 228 286 258 281 277 273 269 251 241 239 240 246 243 249 253 249 254 245 248 252
263 259 260 263 261 271 280 277 286 271 265 246 257 263 248 251 271 293 305 312 313 313 306 276 259 263 261 260 278 259 257 268 259 250 247 247 251 253 255 251 256 254 249 249
259 261 264 261 261 264 268 277 278 263 255 256 265 230 232 225 252 264 266 273 286 287 282 283 291 288 290 275 275 252 245 240 243 255 256 254 258 255 253 251 249 250 252 251
252 257 259 262 262 261 264 267 271 265 260 255 255 245 235 229 242 257 264 266 282 279 275 281 281 276 275 276 273 272 251 247 251 255 254 255 252 251 253 254 254 254 255 256
254 252 256 255 255 262 262 264 264 268 268 256 252 253 257 250 256 256 259 265 270 276 279 281 283 281 274 273 276 273 274 268 271 270 272 272 274 270 257 252 252 253 256 257
261 250 252 254 255 258 261 258 260 262 266 269 259 251 252 256 266 270 277 275 268 269 273 284 289 288 281 274 271 266 265 273 278 281 276 275 281 282 282 266 255 257 257 257
263 255 243 249 251 255 261 260 259 261 261 263 267 266 250 252 256 265 273 277 270 269 276 282 286 286 272 268 268 271 278 282 292 296 297 293 290 290 288 289 282 276 262 261
263 260 246 242 247 254 257 261 260 262 263 265 265 265 265 261 255 259 265 274 273 271 273 272 278 278 257 266 276 274 278 290 293 301 304 301 301 300 288 283 281 279 275 273
259 262 257 250 247 252 258 261 262 264 265 265 266 271 267 261 260 251 259 266 273 267 272 268 271 274 261 264 266 274 281 283 289 289 297 301 302 303 303 307 305 294 275 268
255 256 256 254 254 255 257 260 263 265 269 273 275 274 267 261 258 249 251 261 271 271 276 264 267 272 270 268 274 277 277 284 291 294 296 300 300 303 305 307 310 311 298 271
Height
10936 10937 10940 10943 10946 10948 10947 10948 10949 10952 10953 10951 10954 10954 10956 10957 10959 10961 10962 10962 10963 10966 10966 10968 10969 10969 10970 10971 10972 10972 10972 10972 10973 10973 10974 10977 10979 10980 10980 10982 10983 10985 10987 10989
10935 10934 10936 10940 10943 10944 10942 10943 10944 10946 10948 10949 10948 10948 10948 10950 10953 10955 10958 10958 10958 10960 10961 10961 10962 10963 10964 10964 10965 10965 10966 10966 10965 10965 10968 10970 10973 10973 10975 10976 10978 10979 10981 10983
10934 10933 10933 10935 10938 10941 10940 10937 10937 10939 10941 10942 10942 10942 10943 10944 10945 10947 10949 10951 10952 10953 10954 10955 10956 10958 10959 10959 10960 10961 10961 10961 10960 10959 10960 10963 10965 10967 10969 10971 10973 10974 10976 10979
10932 10932 10931 10930 10932 10935 10937 10935 10934 10934 10932 10933 10933 10933 10936 10937 10940 10941 10941 10943 10946 10948 10949 10950 10952 10953 10955 10956 10955 10957 10957 10956 10955 10953 10954 10955 10956 10959 10962 10965 10968 10969 10974 10976
10928 10928 10928 10928 10929 10929 10929 10929 10929 10927 10925 10925 10927 10926 10927 10928 10928 10929 10935 10934 10936 10939 10942 10945 10946 10949 10950 10952 10953 10954 10954 10953 10951 10950 10949 10949 10950 10951 10954 10958 10962 10965 10970 10973
10924 10924 10924 10924 10924 10925 10923 10923 10922 10920 10920 10920 10918 10918 10920 10920 10918 10919 10924 10926 10927 10931 10935 10939 10939 10942 10944 10946 10947 10947 10947 10947 10946 10945 10944 10943 10943 10946 10950 10955 10958 10962 10965 10968
10918 10918 10918 10918 10919 10919 10918 10917 10915 10914 10913 10913 10912 10912 10912 10913 10910 10913 10917 10918 10920 10922 10925 10930 10931 10933 10936 10937 10939 10939 10940 10939 10939 10938 10938 10938 10938 10942 10946 10951 10955 10959 10961 10964
10915 10914 10914 10913 10912 10913 10913 10913 10912 10909 10908 10908 10906 10906 10907 10904 10903 10906 10908 10910 10914 10916 10917 10918 10922 10925 10927 10930 10931 10933 10934 10933 10933 10935 10935 10935 10936 10936 10942 10946 10950 10954 10958 10961
10910 10909 10908 10907 10907 10908 10908 10908 10907 10906 10904 10901 10898 10898 10899 10900 10897 10899 10901 10905 10909 10910 10911 10911 10912 10916 10916 10919 10924 10926 10926 10928 10927 10930 10931 10932 10935 10936 10936 10940 10944 10949 10952 10956
10903 10902 10902 10902 10902 10903 10903 10902 10901 10899 10898 10895 10892 10891 10889 10889 10892 10893 10895 10899 10902 10901 10903 10905 10905 10905 10904 10907 10911 10913 10915 10917 10920 10923 10926 10928 10929 10932 10933 10936 10939 10943 10949 10952
10898 10899 10896 10897 10896 10896 10895 10895 10895 10892 10889 10887 10886 10883 10882 10880 10880 10883 10887 10891 10893 10892 10893 10892 10894 10896 10899 10899 10900 10901 10903 10908 10912 10916 10918 10918 10919 10920 10923 10924 10927 10933 10939 10945
10894 10894 10892 10890 10890 10891 10890 10889 10886 10884 10882 10880 10879 10877 10874 10871 10872 10876 10881 10883 10883 10883 10882 10882 10881 10885 10889 10892 10894 10895 10896 10900 10904 10907 10910 10912 10911 10914 10915 10921 10923 10923 10924 10928
10889 10888 10888 10886 10886 10886 10885 10884 10881 10879 10876 10875 10874 10873 10872 10869 10869 10871 10873 10873 10873 10874 10874 10873 10876 10879 10881 10884 10888 10890 10891 10894 10897 10900 10904 10906 10909 10911 10914 10915 10914 10915 10918 10921
10884 10884 10884 10884 10882 10881 10880 10878 10875 10874 10873 10871 10872 10870 10868 10867 10866 10867 10867 10867 10867 10866 10868 10869 10871 10872 10876 10878 10880 10882 10884 10888 10891 10895 10897 10900 10902 10905 10908 10910 10909 10912 10913 10916
10880 10878 10879 10879 10879 10877 10875 10873 10871 10871 10870 10869 10869 10869 10867 10865 10865 10866 10866 10866 10865 10863 10863 10864 10866 10869 10870 10871 10874 10877 10879 10882 10885 10888 10890 10892 10895 10897 10900 10902 10903 10906 10908 10910
10873 10872 10872 10873 10872 10872 10872 10868 10867 10867 10867 10866 10867 10867 10867 10866 10866 10866 10866 10866 10865 10863 10864 10863 10865 10866 10868 10869 10870 10872 10875 10875 10878 10880 10882 10885 10886 10889 10892 10894 10896 10897 10897 10900
10865 10866 10866 10866 10867 10865 10866 10864 10864 10863 10864 10863 10865 10866 10866 10866 10865 10865 10864 10864 10863 10862 10861 10862 10864 10865 10866 10865 10865 10866 10868 10870 10872 10874 10876 10879 10881 10883 10884 10886 10887 10888 10891 10893
10857 10859 10860 10860 10862 10860 10860 10860 10860 10860 10860 10862 10863 10864 10864 10863 10863 10863 10861 10860 10859 10860 10859 10860 10861 10861 10862 10864 10863 10864 10864 10865 10866 10868 10870 10872 10873 10873 10873 10874 10873 10875 10878 10881
10849 10851 10853 10852 10855 10855 10855 10856 10855 10856 10857 10859 10861 10861 10861 10861 10861 10860 10860 10859 10858 10857 10856 10854 10855 10854 10854 10857 10859 10860 10861 10863 10863 10862 10862 10862 10862 10862 10862 10862 10861 10862 10866 10869
10842 10844 10845 10845 10847 10848 10848 10851 10850 10850 10852 10855 10856 10857 10858 10858 10859 10858 10858 10856 10855 10853 10851 10851 10850 10850 10850 10851 10852 10854 10855 10856 10857 10856 10855 10854 10853 10851 10850 10850 10850 10853 10856 10857
10833 10836 10838 10838 10840 10841 10842 10844 10845 10845 10848 10849 10851 10852 10853 10854 10854 10854 10853 10852 10851 10849 10848 10847 10845 10843 10842 10843 10844 10844 10846 10847 10846 10846 10845 10843 10841 10839 10838 10838 10839 10842 10842 10843
10823 10828 10829 10830 10833 10833 10835 10837 10838 10841 10841 10842 10844 10846 10847 10848 10848 10848 10846 10844 10844 10844 10842 10841 10839 10836 10835 10834 10835 10835 10835 10835 10835 10835 10834 10833 10830 10827 10824 10824 10826 10827 10827 10825
10814 10818 10822 10822 10823 10824 10825 10828 10831 10833 10835 10836 10836 10838 10840 10842 10842 10842 10841 10839 10838 10837 10835 10833 10831 10830 10829 10828 10828 10828 10825 10823 10821 10820 10818 10817 10818 10817 10814 10809 10809 10810 10812 10812
10805 10808 10812 10813 10814 10815 10817 10819 10822 10824 10826 10828 10829 10830 10832 10833 10834 10835 10834 10833 10833 10832 10829 10827 10825 10824 10823 10823 10822 10820 10818 10815 10812 10808 10806 10803 10799 10797 10797 10797 10792 10788 10787 10789
10796 10798 10801 10804 10805 10807 10809 10811 10813 10814 10815 10817 10819 10821 10823 10823 10824 10825 10825 10825 10825 10825 10823 10821 10818 10816 10816 10815 10813 10811 10808 10806 10803 10800 10796 10792 10789 10785 10779 10775 10772 10770 10764 10764
10785 10788 10790 10794 10797 10798 10800 10801 10802 10804 10805 10807 10808 10810 10810 10811 10812 10812 10813 10815 10816 10815 10814 10812 10810 10808 10806 10804 10802 10800 10797 10794 10791 10789 10785 10781 10776 10771 10766 10758 10752 10746 10741 10737